Location: Sungai Liu
(2.3667°N, 113.8667°E)
Time: 14:44:24
(UTC+00:00)

Cosmos 1452 Rocket - Pass Details

Date: 20 May 2022
Orbit: 768 x 773 km, 74.1° (Epoch: 06 July)

Event Time Altitude Azimuth Distance (km) Brightness Sun altitude
Exits shadow 21:25:00 10° 212° (SSW) 2,344 5.5 -12.3°
Reaches altitude 10° 21:25:05 10° 212° (SSW) 2,314 5.5 -12.3°
Maximum altitude 21:30:02 43° 282° (WNW) 1,081 3.9 -11.1°
Drops below altitude 10° 21:34:59 10° 353° (N) 2,308 6.2 -10.0°
Sets 21:37:28 0° 0° (N) 3,233 7.0 -9.4°
